This demonstration page uses our WeatherBlox Daily Observations layout. Learn more.

Left ArrowRight Arrow

39.01783, -85.05884

Hourly Observations for December 13, 2020

Temp ( °F °C ) Dew Point ( °F °C ) Humidity (%) Winds ( mph kmh ) Pressure ( in mb ) Visibility ( mi km ) Precip ( " mm )
12:31 am 00:31 Cloudy 43 6.1 35 1.7 74 74 WSW 6 9 30.01 1016 10 16 N/A
12:52 am 00:52 Cloudy 43 6.1 35 1.7 74 74 WSW 8 13 29.99 1016 9 14 N/A
1:18 am 01:18 Cloudy 43 6.1 35 1.7 74 74 SW 6 9 30.01 1016 9 14 N/A
1:52 am 01:52 Cloudy 43 6.1 35 1.7 74 74 WSW 6 9 29.99 1016 9 14 N/A
2:52 am 02:52 Cloudy with Light Rain 42 5.6 36 2.2 79 79 W 9 15 30.02 1017 7 11 0.00 0.00
3:52 am 03:52 Cloudy 42 5.6 37 2.8 82 82 W 9 15 30.04 1017 9 14 0.00 0.00
4:52 am 04:52 Cloudy 41 5 35 1.7 79 79 WNW 8 13 30.06 1018 10 16 N/A
5:52 am 05:52 Cloudy 40 4.4 33 0.6 77 77 WNW 8 13 30.09 1019 10 16 N/A
6:12 am 06:12 Cloudy 40 4.4 33 0.6 77 77 WNW 8 13 30.13 1020 10 16 N/A
6:52 am 06:52 Cloudy 40 4.4 34 1.1 79 79 WNW 7 11 30.11 1020 10 16 N/A
7:20 am 07:20 Cloudy 40 4.4 34 1.1 79 79 NW 5 7 30.15 1021 10 16 N/A
7:52 am 07:52 Cloudy 40 4.4 34 1.1 79 79 WNW 5 7 30.13 1020 10 16 N/A
8:52 am 08:52 Cloudy 40 4.4 34 1.1 79 79 WNW 3 6 30.14 1021 10 16 N/A
9:52 am 09:52 Cloudy 41 5 34 1.1 76 76 NW 7 11 30.16 1021 10 16 N/A
10:52 am 10:52 Cloudy 41 5 34 1.1 76 76 N 5 7 30.17 1022 10 16 N/A
11:52 am 11:52 Cloudy 42 5.6 33 0.6 71 71 N N/A 30.15 1021 10 16 N/A
12:52 pm 12:52 Cloudy 43 6.1 33 0.6 68 68 N N/A 30.13 1020 10 16 N/A
1:52 pm 13:52 Cloudy 43 6.1 33 0.6 68 68 N N/A 30.12 1020 10 16 N/A
2:52 pm 14:52 Cloudy 42 5.6 34 1.1 73 73 WSW 3 6 30.12 1020 10 16 N/A
3:24 pm 15:24 Cloudy 43 6.1 33 0.6 68 68 N N/A 30.13 1020 10 16 N/A
3:52 pm 15:52 Cloudy 43 6.1 33 0.6 68 68 N N/A 30.11 1020 10 16 N/A
4:52 pm 16:52 Cloudy 42 5.6 33 0.6 71 71 N 6 9 30.11 1020 10 16 N/A
5:52 pm 17:52 Cloudy 42 5.6 33 0.6 71 71 NNW 3 6 30.12 1020 10 16 N/A
6:52 pm 18:52 Cloudy 42 5.6 33 0.6 71 71 N 3 6 30.11 1020 10 16 N/A
7:52 pm 19:52 Cloudy 41 5 33 0.6 73 73 NNW 5 7 30.09 1019 10 16 N/A
8:52 pm 20:52 Cloudy 41 5 33 0.6 73 73 NNW 3 6 30.11 1020 10 16 N/A
9:52 pm 21:52 Cloudy 40 4.4 33 0.6 77 77 NNW 5 7 30.10 1019 10 16 N/A
10:52 pm 22:52 Cloudy 40 4.4 33 0.6 77 77 NNW 3 6 30.08 1019 10 16 N/A
11:52 pm 23:52 Cloudy with Light Rain 40 4.4 34 1.1 79 79 SE 5 7 30.05 1018 10 16 0.00 0.00

Powered by AerisWeather